Waarnemingen

Advertentie
Mijn weer
Perpignan, Frankrijk (7747): temperatuur & dauwpunt: 12.12.2017 13:00:00 - 18.12.2017 13:00:00 (CET)Perpignan, Frankrijk (7747): temperatuur 5cm: 12.12.2017 13:00:00 - 18.12.2017 13:00:00 (CET)Perpignan, Frankrijk (7747): temperatuur -20cm & temperatuur -100cm: 12.12.2017 13:00:00 - 18.12.2017 13:00:00 (CET)Perpignan, Frankrijk (7747): windsnelheid & windstoten: 12.12.2017 13:00:00 - 18.12.2017 13:00:00 (CET)Perpignan, Frankrijk (7747): windrichting: 12.12.2017 13:00:00 - 18.12.2017 13:00:00 (CET)Perpignan, Frankrijk (7747): luchtdruk: 12.12.2017 13:00:00 - 18.12.2017 13:00:00 (CET)Perpignan, Frankrijk (7747): zicht: 12.12.2017 13:00:00 - 18.12.2017 13:00:00 (CET)Perpignan, Frankrijk (7747): Zonneschijnduur: 12.12.2017 13:00:00 - 18.12.2017 13:00:00 (CET)Perpignan, Frankrijk (7747): neerslag: 12.12.2017 13:00:00 - 18.12.2017 13:00:00 (CET)
Datum & Tijd tt [°C] td [°C] tt 5cm [°C] tt -20cm [°C] tt -100cm [°C] ff [km/u] ff [kn] fx [km/u] fx [kn] dd ppp [hPa] vv [km] sd [min] rr [mm]
18.12.2017 13:00:00 12,4 2,5 12,0 9,3 12,5 28 15 46 25 NNW 1025,5 60 0 0,0
18.12.2017 12:00:00 12,3 1,3 11,3 9,2 12,6 18 10 44 24 NNW 1026,1 60 0 0,0
18.12.2017 11:00:00 11,5 1,7 11,0 9,2 12,5 16 9 48 26 W 1026,6 60 0 0,0
18.12.2017 10:00:00 11,5 1,7 10,5 9,2 12,5 36 19 58 32 WNW 1027,0 60 0 0,0
18.12.2017 09:00:00 11,1 2,1 9,6 9,2 12,5 35 19 58 32 WNW 1026,6 60 0 0,0
18.12.2017 08:00:00 10,8 2,1 8,9 9,2 12,6 5 3 29 15 - 1027,9 10 0 0,0
18.12.2017 07:00:00 10,1 2,7 9,1 9,2 12,6 13 7 46 25 NW 1027,8 10 0 0,0
18.12.2017 06:00:00 9,9 2,7 8,6 9,2 12,6 24 13 47 26 NW 1028,4 60 0 0,0
18.12.2017 05:00:00 9,6 2,9 8,8 9,2 12,6 29 16 50 27 NW 1028,9 10 0 0,0
18.12.2017 04:00:00 9,8 3,5 8,4 9,2 12,6 24 13 38 20 NW 1029,3 10 0 0,0
18.12.2017 03:00:00 9,6 3,8 8,5 9,3 12,6 18 10 43 23 NW 1029,5 10 0 0,0
18.12.2017 02:00:00 9,2 4,0 7,5 9,4 12,6 18 10 38 20 NW 1030,0 10 0 0,0
18.12.2017 01:00:00 8,6 3,8 6,6 9,4 12,6 25 13 41 22 NW 1030,5 60 0 0,0
18.12.2017 00:00:00 7,9 4,1 6,4 9,4 12,6 18 10 34 18 NW 1030,8 10 0 0,0
17.12.2017 23:00:00 7,6 3,8 5,6 9,5 12,6 14 8 42 23 WNW 1030,6 60 0 0,2
17.12.2017 22:00:00 8,1 4,1 5,8 9,5 12,6 22 12 37 20 NW 1030,4 52 0 0,0
17.12.2017 21:00:00 7,7 3,4 5,6 9,5 12,6 22 12 36 19 WNW 1030,2 10 0 0,0
17.12.2017 20:00:00 8,0 4,0 6,2 9,5 12,6 11 6 37 20 NW 1030,1 30 0 0,2
17.12.2017 19:00:00 8,3 2,9 6,6 9,4 12,6 24 13 44 24 WNW 1029,3 10 0 0,0
17.12.2017 18:00:00 8,6 2,2 7,5 9,4 12,6 22 12 52 28 NW 1028,8 10 0 0,0
17.12.2017 17:00:00 10,1 0,1 9,9 9,3 12,6 28 15 54 29 NW 1027,9 10 16 0,0
17.12.2017 16:00:00 10,6 -0,9 10,6 9,2 12,6 26 14 63 34 NW 1027,2 10 5 0,0
17.12.2017 15:00:00 11,3 -2,5 10,9 9,1 12,6 26 14 60 32 NW 1026,8 10 25 0,0
17.12.2017 14:00:00 10,7 -3,1 10,3 9,0 12,7 39 21 66 35 NW 1026,9 10 26 0,0
17.12.2017 13:00:00 10,4 -4,1 11,2 8,8 12,6 42 23 70 38 NW 1027,4 10 49 0,0
17.12.2017 12:00:00 10,2 -4,2 10,3 8,8 12,7 40 21 67 36 NW 1027,7 43 57 0,0
17.12.2017 11:00:00 9,3 -3,6 10,0 8,8 12,7 37 20 64 35 NW 1028,0 10 51 0,0
17.12.2017 10:00:00 8,5 -2,2 7,9 8,8 12,7 32 17 70 38 NW 1027,4 42 60 0,0
17.12.2017 09:00:00 7,5 -1,7 6,2 8,9 12,7 37 20 70 38 NW 1025,9 38 23 0,0
17.12.2017 08:00:00 6,9 -1,0 6,1 8,9 12,7 39 21 66 36 NW 1026,2 10 0 0,0
17.12.2017 07:00:00 7,0 -1,4 6,0 9,0 12,7 39 21 71 38 NW 1026,3 10 0 0,0
17.12.2017 06:00:00 7,1 -2,1 5,9 9,0 12,7 42 23 64 34 NW 1025,8 10 0 0,0
17.12.2017 05:00:00 6,8 -1,1 5,9 9,1 12,7 29 16 61 33 NW 1025,4 10 0 0,0
17.12.2017 04:00:00 6,9 -0,8 5,8 9,1 12,7 40 21 64 35 NW 1025,3 60 0 0,0
17.12.2017 03:00:00 6,9 -0,6 6,1 9,2 12,7 31 17 56 30 NW 1025,4 60 0 0,0
17.12.2017 02:00:00 7,0 -0,7 6,0 9,2 12,7 28 15 58 31 NW 1025,4 10 0 0,0
17.12.2017 01:00:00 6,9 -0,8 6,1 9,3 12,7 30 16 60 33 NW 1025,6 60 0 0,0
17.12.2017 00:00:00 6,9 -0,3 6,0 9,4 12,7 29 15 56 30 NW 1025,4 60 0 0,0
16.12.2017 23:00:00 7,0 -0,7 6,2 9,4 12,7 39 21 69 38 NW 1024,2 60 0 0,0
16.12.2017 22:00:00 7,0 -0,7 6,3 9,5 12,7 29 16 64 35 NW 1023,7 60 0 0,0
16.12.2017 21:00:00 7,4 -1,1 6,1 9,6 12,7 29 16 58 31 NW 1023,2 60 0 0,0
16.12.2017 20:00:00 7,2 -1,2 5,8 9,6 12,7 18 10 54 29 NW 1022,7 60 0 0,0
16.12.2017 19:00:00 7,1 -1,6 6,0 9,6 12,7 22 12 55 30 NW 1021,6 60 0 0,0
16.12.2017 18:00:00 7,5 -1,2 6,7 9,6 12,7 29 16 58 31 NNW 1021,0 60 0 0,0
16.12.2017 17:00:00 8,4 -2,3 7,9 9,6 12,7 33 18 69 37 NNW 1020,3 60 41 0,0
16.12.2017 16:00:00 9,2 -1,8 9,8 9,6 12,8 37 20 64 34 NW 1019,1 35 60 0,0
16.12.2017 15:00:00 10,0 -1,4 10,5 9,4 12,7 23 13 72 39 NW 1018,6 39 58 0,0
16.12.2017 14:00:00 10,0 -1,7 11,6 9,4 12,7 42 23 71 38 NW 1017,7 24 60 0,0
16.12.2017 13:00:00 9,8 -2,2 11,6 9,3 12,7 48 26 81 44 NW 1017,3 10 60 0,0
16.12.2017 12:00:00 9,5 -1,9 9,2 9,3 12,7 46 25 79 43 NW 1018,0 34 43 0,0
16.12.2017 11:00:00 8,6 -1,3 8,3 9,3 12,7 32 18 71 39 NW 1018,1 53 25 0,0
16.12.2017 10:00:00 8,4 -1,2 8,0 9,4 12,7 38 20 62 34 NW 1016,6 37 55 0,0
16.12.2017 09:00:00 7,8 -0,9 6,2 9,4 12,7 31 17 57 31 NNW 1015,2 36 24 0,0
16.12.2017 08:00:00 7,5 -0,5 6,5 9,5 12,7 33 18 55 30 NW 1014,8 41 0 0,0
16.12.2017 07:00:00 7,7 0,2 6,6 9,6 12,7 29 16 60 32 NW 1013,7 10 0 0,0
16.12.2017 06:00:00 7,6 0,6 6,6 9,7 12,7 37 20 67 36 NW 1012,2 10 0 0,0
16.12.2017 05:00:00 7,4 1,0 5,8 9,8 12,7 29 16 50 27 NW 1011,6 10 0 0,0
16.12.2017 04:00:00 7,1 1,4 4,9 9,8 12,7 24 13 42 23 WNW 1012,4 60 0 0,0
16.12.2017 03:00:00 7,6 1,6 6,5 9,9 12,7 25 13 66 36 NW 1012,5 60 0 0,0
16.12.2017 02:00:00 8,0 1,8 6,6 10,0 12,7 46 25 67 36 NW 1009,9 60 0 0,0
16.12.2017 01:00:00 8,1 1,9 7,5 10,0 12,6 35 19 65 35 NW 1010,0 10 0 0,0
16.12.2017 00:00:00 8,5 2,3 7,6 10,1 12,7 34 19 66 35 WNW 1009,6 60 0 0,0
15.12.2017 23:00:00 8,8 1,7 6,4 10,2 12,7 35 19 64 35 WNW 1009,2 10 0 0,0
15.12.2017 22:00:00 8,5 2,5 5,9 10,3 12,7 37 20 81 44 WNW 1009,2 60 0 0,0
15.12.2017 21:00:00 9,7 1,6 8,7 10,3 12,7 44 24 75 41 NW 1007,7 60 0 0,0
15.12.2017 20:00:00 9,7 1,3 8,6 10,4 12,7 41 22 64 35 WNW 1007,3 10 0 0,0
15.12.2017 19:00:00 10,4 1,0 9,4 10,4 12,7 39 21 68 37 WNW 1007,2 60 0 0,0
15.12.2017 18:00:00 11,0 -0,8 9,9 10,5 12,7 29 16 55 30 WNW 1006,4 60 0 0,0
15.12.2017 17:00:00 11,3 -0,5 10,5 10,4 12,7 30 16 58 31 WNW 1006,2 60 50 0,0
15.12.2017 16:00:00 11,6 1,2 12,5 10,4 12,6 20 11 65 35 NW 1006,2 60 60 0,0
15.12.2017 15:00:00 12,3 0,1 12,7 10,3 12,6 46 25 81 44 NW 1005,3 31 60 0,0
15.12.2017 14:00:00 12,0 1,0 13,5 10,2 12,6 53 29 83 45 NW 1003,8 48 60 0,0
15.12.2017 13:00:00 11,4 1,9 11,3 10,2 12,7 21 11 61 33 NW 1006,2 60 23 0,0
15.12.2017 12:00:00 11,7 0,7 10,0 10,2 12,7 26 14 56 30 NW 1006,4 60 32 0,0
15.12.2017 11:00:00 9,9 1,5 7,9 10,3 12,7 25 13 49 26 NW 1007,1 60 5 0,0
15.12.2017 10:00:00 7,9 1,9 7,8 10,3 12,7 19 10 42 23 NW 1007,9 60 0 0,0
15.12.2017 09:00:00 8,2 2,4 7,7 10,3 12,7 28 15 49 27 NW 1008,2 60 0 0,0
15.12.2017 08:00:00 9,3 3,3 8,9 10,3 12,6 26 14 58 32 N 1006,9 10 0 0,0
15.12.2017 07:00:00 12,7 4,6 11,7 10,3 12,6 32 17 58 31 NW 1005,0 60 0 0,0
15.12.2017 06:00:00 12,5 5,9 10,9 10,3 12,6 24 13 38 21 WNW 1005,4 60 0 0,0
15.12.2017 05:00:00 12,1 6,4 10,2 10,4 12,6 16 9 37 20 WNW 1005,7 60 0 0,0
15.12.2017 04:00:00 11,3 6,8 9,3 10,4 12,7 15 8 46 25 W 1006,9 10 0 0,0
15.12.2017 03:00:00 12,4 6,4 10,5 10,4 12,6 29 16 51 28 WNW 1007,4 10 0 0,0
15.12.2017 02:00:00 11,6 7,1 7,5 10,5 12,6 28 15 46 25 NW 1008,7 10 0 0,4
15.12.2017 01:00:00 8,6 4,8 5,8 10,6 12,6 9 5 16 9 WZW 1009,0 10 0 0,0
15.12.2017 00:00:00 8,8 5,2 6,1 10,6 12,6 9 5 13 7 ZW 1009,4 10 0 0,0
14.12.2017 23:00:00 8,9 5,5 4,5 10,7 12,6 5 3 14 8 - 1009,7 10 0 0,0
14.12.2017 22:00:00 8,2 4,8 3,3 10,8 12,7 9 5 10 6 ZW 1009,9 26 0 0,0
14.12.2017 21:00:00 9,3 5,7 4,9 10,8 12,7 2 1 8 5 ZZW 1010,6 51 0 0,0
14.12.2017 20:00:00 11,4 6,9 8,5 10,8 12,6 3 2 7 4 OZO 1010,5 50 0 0,0
14.12.2017 19:00:00 12,2 7,5 10,2 10,8 12,6 6 3 10 5 WNW 1010,9 57 0 0,0
14.12.2017 18:00:00 12,5 7,2 9,3 10,7 12,6 6 3 8 5 Z 1011,1 60 0 0,0
14.12.2017 17:00:00 13,8 7,8 13,2 10,6 12,7 8 4 13 7 OZO 1011,7 60 0 0,0
14.12.2017 16:00:00 15,1 7,4 15,1 10,4 12,7 9 5 16 9 O 1011,8 10 37 0,0
14.12.2017 15:00:00 16,1 6,5 16,3 10,2 12,7 12 6 19 11 O 1012,0 55 32 0,0
14.12.2017 14:00:00 17,0 5,6 17,7 10,1 12,7 9 5 22 12 O 1012,2 10 28 0,0
14.12.2017 13:00:00 17,9 4,5 17,2 9,9 12,6 8 4 22 12 ZW 1013,0 59 48 0,0
14.12.2017 12:00:00 16,3 4,3 17,4 9,8 12,6 5 3 13 7 W 1014,5 57 1 0,0
14.12.2017 11:00:00 16,4 4,1 15,3 9,7 12,7 11 6 40 22 W 1014,8 10 0 0,0
14.12.2017 10:00:00 15,5 3,6 14,2 9,6 12,7 28 15 46 25 W 1015,0 59 0 0,0
14.12.2017 09:00:00 14,7 5,7 13,4 9,5 12,7 21 11 41 22 W 1015,4 10 0 0,0
14.12.2017 08:00:00 15,0 8,0 13,8 9,5 12,7 24 13 39 21 WNW 1015,5 10 0 0,0
14.12.2017 07:00:00 14,6 8,3 13,7 9,4 12,7 16 9 44 24 WNW 1015,0 60 0 0,0
14.12.2017 06:00:00 14,6 8,5 13,7 9,3 12,7 21 11 49 27 NW 1014,4 10 0 0,0
14.12.2017 05:00:00 14,9 8,8 14,1 9,2 12,7 28 15 55 30 NW 1014,7 10 0 0,0
14.12.2017 04:00:00 15,4 9,1 8,0 9,2 12,8 31 17 59 32 NW 1014,8 60 0 0,0
14.12.2017 03:00:00 10,0 3,9 7,7 9,2 12,8 9 5 29 16 N 1015,2 10 0 0,0
14.12.2017 02:00:00 9,4 2,3 8,2 9,2 12,8 5 3 8 4 ZZW 1015,5 36 0 0,0
14.12.2017 01:00:00 9,4 2,3 8,5 9,1 12,8 4 2 18 10 W 1015,6 41 0 0,0
14.12.2017 00:00:00 9,3 2,2 8,7 9,1 12,8 8 4 15 8 WZW 1016,2 10 0 0,0
13.12.2017 23:00:00 9,5 3,2 8,5 9,1 12,8 4 2 13 7 ZW 1016,8 60 0 0,0
13.12.2017 22:00:00 9,1 2,6 7,8 9,1 12,9 10 5 13 7 ZW 1017,2 36 0 0,0
13.12.2017 21:00:00 8,8 2,8 7,4 9,0 12,8 9 5 16 8 WZW 1017,6 51 0 0,0
13.12.2017 20:00:00 8,8 2,1 7,2 9,0 12,8 4 2 11 6 WNW 1017,7 27 0 0,0
13.12.2017 19:00:00 8,0 2,7 4,2 8,9 12,8 4 2 8 4 WNW 1018,3 34 0 0,0
13.12.2017 18:00:00 9,2 1,8 4,3 8,8 12,9 0 0 5 3 N 1018,3 24 0 0,0
13.12.2017 17:00:00 11,4 -0,1 9,5 8,6 12,9 0 0 7 4 N 1018,6 10 3 0,0
13.12.2017 16:00:00 12,8 -0,8 13,3 8,3 12,8 4 2 8 5 - 1018,4 10 53 0,0
13.12.2017 15:00:00 13,4 -0,6 13,3 8,1 12,8 4 2 10 5 - 1018,7 10 19 0,0
13.12.2017 14:00:00 13,4 -1,0 14,7 7,9 12,8 2 1 8 4 ONO 1019,5 59 41 0,0
13.12.2017 13:00:00 11,5 -2,7 12,5 7,7 12,8 3 1 9 5 WZW 1020,4 50 34 0,0
13.12.2017 12:00:00 9,6 -3,4 7,4 7,7 12,9 3 2 8 4 O 1021,2 44 33 0,0
13.12.2017 11:00:00 6,6 -4,2 6,8 7,7 12,9 2 1 10 5 ZZO 1022,7 56 9 0,0
13.12.2017 10:00:00 5,7 -4,8 5,0 7,8 12,9 4 2 11 6 WZW 1022,8 53 33 0,0
13.12.2017 09:00:00 1,9 -5,3 -3,6 7,9 12,9 6 4 13 7 ZZW 1023,0 60 34 0,0
13.12.2017 08:00:00 0,0 -6,4 -3,7 8,1 13,0 9 5 18 10 WZW 1023,1 60 0 0,0
13.12.2017 07:00:00 0,4 -5,4 -5,1 8,2 12,9 11 6 18 10 W 1022,9 60 0 0,0
13.12.2017 06:00:00 -0,3 -4,7 -5,1 8,4 12,9 5 3 13 7 WNW 1022,7 60 0 0,0
13.12.2017 05:00:00 -0,4 -5,6 -2,7 8,6 13,0 9 5 21 11 W 1022,6 10 0 0,0
13.12.2017 04:00:00 0,4 -4,8 -1,8 8,7 12,9 13 7 23 12 ZW 1022,9 10 0 0,0
13.12.2017 03:00:00 0,3 -5,1 -1,3 8,8 12,9 16 9 21 11 WZW 1023,2 60 0 0,0
13.12.2017 02:00:00 1,4 -2,9 -3,1 9,0 13,0 10 5 14 8 Z 1023,0 60 0 0,0
13.12.2017 01:00:00 2,8 -1,8 -2,1 9,1 12,9 4 2 16 9 ZZW 1022,9 60 0 0,0
13.12.2017 00:00:00 3,9 -1,3 -2,1 9,2 12,9 5 3 23 12 WZW 1022,5 60 0 0,0
12.12.2017 23:00:00 5,4 -0,4 2,8 9,3 12,9 10 5 27 14 WNW 1022,1 60 0 0,0
12.12.2017 22:00:00 5,7 0,2 3,3 9,4 13,0 17 9 29 15 W 1021,2 60 0 0,0
12.12.2017 21:00:00 6,0 0,9 3,6 9,5 13,0 16 9 29 16 WNW 1020,9 60 0 0,0
12.12.2017 20:00:00 6,6 1,3 4,3 9,6 12,9 9 5 21 12 NNW 1020,6 10 0 0,0
12.12.2017 19:00:00 7,0 1,5 5,6 9,6 13,0 12 6 40 22 NW 1019,6 60 0 0,0
12.12.2017 18:00:00 7,4 1,5 6,4 9,7 12,9 21 11 34 19 NNW 1018,3 10 0 0,0
12.12.2017 17:00:00 8,3 1,2 7,3 9,7 13,0 16 8 42 23 NW 1017,6 60 28 0,0
12.12.2017 16:00:00 9,9 0,8 9,7 9,6 13,0 20 11 45 24 NNW 1017,0 60 46 0,0
12.12.2017 15:00:00 9,6 0,7 9,4 9,5 12,9 28 15 45 25 NNW 1016,5 51 8 0,0
12.12.2017 14:00:00 8,8 0,7 9,0 9,5 13,0 26 14 46 25 NW 1016,3 60 0 0,0
12.12.2017 13:00:00 8,7 1,4 9,3 9,4 13,0 21 12 45 24 NW 1015,8 55 1 0,0

tt = temperatuur
td = dauwpunt
tt 5cm = temperatuur 5cm
tt -20cm = temperatuur -20cm
tt -100cm = temperatuur -100cm
ff = windsnelheid
fx = windstoten
dd = windrichting
ppp = luchtdruk
vv = zicht
sd = Zonneschijnduur
rr = neerslag

Weerstations in de omgeving